Weather History for KOMA - May, 2013

Change the Weather History Date:

Friday, May 3, 2013

  Actual Average Record
Temperature  
Mean Temperature 39 °F 58 °F  
Max Temperature 46 °F 70 °F 92 °F (1949)
Min Temperature 32 °F 47 °F 26 °F (1907)
Degree Days  
Heating Degree Days 26 8  
Month to date heating degree days 70 24  
Since 1 July heating degree days 6027 6026  
Cooling Degree Days 0 1  
Month to date cooling degree days 0 3  
Year to date cooling degree days 7 19  
Moisture  
Dew Point 30 °F    
Average Humidity 69    
Maximum Humidity 85    
Minimum Humidity 53    
Precipitation  
Precipitation 0.00 in 0.13 in 1.92 in (1981)
Month to date precipitation 1.23 0.39  
Year to date precipitation 9.83 6.91  
Snow  
Snow 0.00 in 0.00 in - ()
Month to date snowfall 3.1 0.0  
Since 1 July snowfall 35.7 26.4  
Snow Depth 0.00 in    
Sea Level Pressure  
Sea Level Pressure 30.22 in    
Wind  
Wind Speed 16 mph (North)    
Max Wind Speed 24 mph    
Max Gust Speed 31 mph    
Visibility 10 miles    
Events      
T = Trace of Precipitation, MM = Missing Value Source: NWS Daily Summary

Daily Weather History Graph

Daily Weather History Graph

Search for Another Location

Airport or City:

Trip Planner

Search our weather history database for the weather conditions in past years. The results will help you decide how hot, cold, wet, or windy it might be!

Date:

Astronomy

May. 03, 2013 Rise Set
Actual Time 6:18 AM CDT 8:23 PM CDT
Civil Twilight 5:47 AM CDT 8:53 PM CDT
Nautical Twilight 5:10 AM CDT 9:31 PM CDT
Astronomical Twilight 4:30 AM CDT 10:11 PM CDT
Moon 2:47 AM CDT (5/3) 2:15 PM CDT (5/3)
Length of Visible Light 15h 05m
Length of Day
14h 05m
Last Quarter, 37% of the Moon is Illuminated
May 3
Last Quarter
May 9
New
May 17
First Quarter
May 24
Full
May 31
Last Quarter

Hourly Weather History & Observations

Time (CDT) Temp. Windchill Dew Point Humidity Pressure Visibility Wind Dir Wind Speed Gust Speed Precip Events Conditions
12:52 AM 37.0 °F 30.4 °F 28.9 °F 73% 30.40 in 10.0 mi North 9.2 mph - N/A   Scattered Clouds
1:52 AM 37.0 °F 30.4 °F 28.0 °F 70% 30.38 in 10.0 mi North 9.2 mph - N/A   Scattered Clouds
2:52 AM 35.1 °F 26.9 °F 27.0 °F 72% 30.36 in 10.0 mi NNW 11.5 mph - N/A   Partly Cloudy
3:52 AM 35.1 °F 26.9 °F 27.0 °F 72% 30.33 in 10.0 mi NNW 11.5 mph - N/A   Partly Cloudy
4:52 AM 34.0 °F 25.5 °F 27.0 °F 75% 30.33 in 10.0 mi NNW 11.5 mph - N/A   Mostly Cloudy
5:52 AM 33.1 °F 24.9 °F 27.0 °F 78% 30.32 in 10.0 mi NNW 10.4 mph - N/A   Scattered Clouds
6:52 AM 32.0 °F 22.5 °F 28.0 °F 85% 30.31 in 10.0 mi NW 12.7 mph - N/A   Mostly Cloudy
7:52 AM 34.0 °F 25.0 °F 28.0 °F 79% 30.31 in 10.0 mi NNW 12.7 mph - N/A   Mostly Cloudy
8:52 AM 35.1 °F 25.9 °F 28.0 °F 76% 30.32 in 10.0 mi NNW 13.8 mph - N/A   Mostly Cloudy
9:52 AM 37.9 °F 28.5 °F 28.9 °F 70% 30.27 in 10.0 mi NNW 17.3 mph - N/A   Mostly Cloudy
11:52 AM 42.1 °F 32.8 °F 30.9 °F 65% 30.23 in 10.0 mi NNW 21.9 mph 27.6 mph N/A   Mostly Cloudy
12:52 PM 42.1 °F 33.9 °F 30.0 °F 62% 30.21 in 10.0 mi North 17.3 mph - N/A   Overcast
1:52 PM 44.1 °F 36.2 °F 30.0 °F 58% 30.18 in 10.0 mi North 18.4 mph 25.3 mph N/A   Mostly Cloudy
2:52 PM 44.1 °F 36.2 °F 30.0 °F 58% 30.16 in 10.0 mi North 18.4 mph - N/A   Mostly Cloudy
3:52 PM 44.1 °F 37.4 °F 30.0 °F 58% 30.14 in 10.0 mi North 13.8 mph 23.0 mph N/A   Mostly Cloudy
4:52 PM 45.0 °F 37.6 °F 30.0 °F 56% 30.12 in 10.0 mi North 17.3 mph - N/A   Overcast
5:52 PM 46.0 °F 39.3 °F 30.0 °F 54% 30.10 in 10.0 mi North 16.1 mph 24.2 mph N/A   Overcast
6:52 PM 46.0 °F 39.6 °F 30.9 °F 56% 30.09 in 10.0 mi North 15.0 mph - N/A   Overcast
7:52 PM 44.1 °F 36.8 °F 30.0 °F 58% 30.09 in 10.0 mi North 16.1 mph 24.2 mph N/A   Mostly Cloudy
8:52 PM 43.0 °F 35.1 °F 30.0 °F 60% 30.09 in 10.0 mi North 17.3 mph - N/A   Mostly Cloudy
9:52 PM 42.1 °F 33.6 °F 32.0 °F 67% 30.09 in 10.0 mi NNE 18.4 mph 27.6 mph N/A   Overcast
10:52 PM 39.9 °F 31.1 °F 33.1 °F 77% 30.08 in 10.0 mi North 17.3 mph 26.5 mph N/A   Overcast
11:10 PM 39.2 °F 29.6 °F 33.8 °F 81% 30.06 in 10.0 mi NNE 19.6 mph - N/A   Overcast
11:52 PM 39.0 °F 29.6 °F 33.1 °F 79% 30.06 in 10.0 mi North 18.4 mph 27.6 mph N/A   Overcast